User: anonymous   Login
Location: Unspecified
(0.0000°N, 0.0000°E)
Time: 09:40:11
(UTC+00:00)
Language:

Asterix - Orbit

View from above orbital plane
View from above orbital plane
View from above satellite
View from above satellite

Ground track
Ground track

The orbit data is extracted from the following two-line orbital elements,

1 01778U 65096A   17296.20040529  .00000230  00000-0  58678-4 0  9999
2 01778  34.2625 349.6826 0752374 271.4553  80.0110 13.46833351538025
Epoch (UTC): 23 October 2017 04:48:35
Eccentricity: 0.0752374
inclination: 34.2625°
perigee height: 522 km
apogee height: 1645 km
right ascension of ascending node: 349.6826°
argument of perigee: 271.4553°
revolutions per day: 13.46833351
mean anomaly at epoch: 80.0110°
orbit number at epoch: 53802

The dashed part of the orbit path shows where the satellite is in the earth's shadow,  

DLR